DT_LEITURA;HR_LEITURA;MED-PressaoAtm[hPa];VAL-TempExt[oC];VAL-UmidExt[%UR];VAL-TempInt[oC];VAL-UmidInt[%UR];Dir-Vento[grau];Vel-Vento[m/s];Precipitação[mm/h]
22/08/2026;00:04:00;1020,3;;;16,0;78;238;4,8;0,0
22/08/2026;00:09:00;1020,3;;;16,0;78;242;4,3;0,0
22/08/2026;00:14:00;1020,4;;;16,0;77;249;3,8;0,0
22/08/2026;00:19:00;1020,4;;;16,0;78;239;3,3;0,0
22/08/2026;00:24:00;1020,4;;;16,0;78;238;4,7;0,0
22/08/2026;00:29:00;1020,5;;;16,0;77;234;3,9;0,0
22/08/2026;00:34:00;1020,5;;;15,9;77;248;3,7;0,0
22/08/2026;00:39:00;1020,5;;;15,9;78;240;4,4;0,0
22/08/2026;00:44:00;1020,5;;;15,8;77;231;4,5;0,0
22/08/2026;00:49:00;1020,6;;;15,8;77;237;3,8;0,0
22/08/2026;00:54:00;1020,6;;;15,8;78;239;3,7;0,0
22/08/2026;00:59:00;1020,5;;;15,7;78;235;3,6;0,0
22/08/2026;01:04:00;1020,5;;;15,7;78;240;3,2;0,0
22/08/2026;01:09:00;1020,5;;;15,7;78;248;3,7;0,0
22/08/2026;01:14:00;1020,5;;;15,6;78;243;4,8;0,0
22/08/2026;01:19:00;1020,5;;;15,6;78;236;4,1;0,0
22/08/2026;01:24:00;1020,5;;;15,5;78;239;3,3;0,0
22/08/2026;01:29:00;1020,5;;;15,5;78;238;3,4;0,0
22/08/2026;01:34:00;1020,5;;;15,5;78;250;3,0;0,0
22/08/2026;01:39:00;1020,6;;;15,4;78;231;3,5;0,0
22/08/2026;01:44:00;1020,6;;;15,4;78;248;4,4;0,0
22/08/2026;01:49:00;1020,5;;;15,4;78;240;3,9;0,0
22/08/2026;01:54:00;1020,5;;;15,3;78;248;3,8;0,0
22/08/2026;01:59:00;1020,5;;;15,3;78;240;3,5;0,0
22/08/2026;02:04:00;1020,5;;;15,2;78;245;3,8;0,0
22/08/2026;02:09:00;1020,5;;;15,2;78;246;3,4;0,0
22/08/2026;02:14:00;1020,4;;;15,2;78;245;4,0;0,0
22/08/2026;02:19:00;1020,5;;;15,1;78;236;3,5;0,0
22/08/2026;02:24:00;1020,5;;;15,0;78;234;3,2;0,0
22/08/2026;02:29:00;1020,4;;;14,9;78;238;3,3;0,0
22/08/2026;02:34:00;1020,4;;;14,9;78;231;4,2;0,0
22/08/2026;02:39:00;1020,4;;;14,8;78;238;4,1;0,0
22/08/2026;02:44:00;1020,4;;;14,7;78;243;4,4;0,0
22/08/2026;02:49:00;1020,4;;;14,7;78;243;2,9;0,0
22/08/2026;02:54:00;1020,3;;;14,7;78;239;3,8;0,0
22/08/2026;02:59:00;1020,3;;;14,6;78;241;3,6;0,0
22/08/2026;03:04:00;1020,4;;;14,6;78;226;3,1;0,0
22/08/2026;03:09:00;1020,3;;;14,5;78;242;3,1;0,0
22/08/2026;03:14:00;1020,3;;;14,5;78;242;3,0;0,0
22/08/2026;03:19:00;1020,2;;;14,4;78;238;3,7;0,0
22/08/2026;03:24:00;1020,2;;;14,4;78;245;2,2;0,0
22/08/2026;03:29:00;1020,2;;;14,4;78;237;2,9;0,0
22/08/2026;03:34:00;1020,2;;;14,4;78;233;3,2;0,0
22/08/2026;03:39:00;1020,2;;;14,3;78;230;2,9;0,0
22/08/2026;03:44:00;1020,1;;;14,3;78;236;2,9;0,0
22/08/2026;03:49:00;1020,1;;;14,3;78;231;3,4;0,0
22/08/2026;03:54:00;1020,1;;;14,2;78;240;3,4;0,0
22/08/2026;03:59:00;1020,2;;;14,2;78;231;4,3;0,0
22/08/2026;04:04:00;1020,2;;;14,1;78;244;4,7;0,0
22/08/2026;04:09:00;1020,2;;;14,1;78;244;4,2;0,0
22/08/2026;04:14:00;1020,2;;;14,0;78;241;4,1;0,0
22/08/2026;04:19:00;1020,2;;;13,9;78;238;4,8;0,0
22/08/2026;04:24:00;1020,2;;;13,9;78;244;3,9;0,0
22/08/2026;04:29:00;1020,2;;;13,9;78;234;3,5;0,0
22/08/2026;04:34:00;1020,1;;;13,8;78;236;4,6;0,0
22/08/2026;04:39:00;1020,1;;;13,8;78;241;4,2;0,0
22/08/2026;04:44:00;1020,1;;;13,7;78;239;3,8;0,0
22/08/2026;04:49:00;1020,1;;;13,7;78;233;4,2;0,0
22/08/2026;04:54:00;1020,1;;;13,6;78;235;3,3;0,0
22/08/2026;04:59:00;1020,1;;;13,6;78;239;4,1;0,0
22/08/2026;05:04:00;1020,1;;;13,6;78;235;4,5;0,0
22/08/2026;05:09:00;1020,1;;;13,5;78;236;4,9;0,0
22/08/2026;05:14:00;1020,1;;;13,5;78;233;5,1;0,0
22/08/2026;05:19:00;1020,1;;;13,5;78;234;5,1;0,0
22/08/2026;05:24:00;1020,1;;;13,5;78;242;5,1;0,0
22/08/2026;05:29:00;1020,1;;;13,5;78;241;5,0;0,0
22/08/2026;05:34:00;1020,1;;;13,4;78;245;5,2;0,0
22/08/2026;05:39:00;1020,1;;;13,4;78;248;4,6;0,0
22/08/2026;05:44:00;1020,1;;;13,4;78;246;4,7;0,0
22/08/2026;05:49:00;1020,2;;;13,4;78;240;4,7;0,0
22/08/2026;05:54:00;1020,2;;;13,4;78;240;4,7;0,0
22/08/2026;05:59:00;1020,2;;;13,4;78;244;5,0;0,0
22/08/2026;06:04:00;1020,3;;;13,4;78;241;5,2;0,0
22/08/2026;06:09:00;1020,4;;;13,4;78;236;4,7;0,0
22/08/2026;06:14:00;1020,4;;;13,3;78;238;5,0;0,0
22/08/2026;06:19:00;1020,4;;;13,3;78;242;5,0;0,0
22/08/2026;06:24:00;1020,5;;;13,3;78;241;4,9;0,0
22/08/2026;06:29:00;1020,5;;;13,3;78;240;5,0;0,0
22/08/2026;06:34:00;1020,5;;;13,3;78;241;5,4;0,0
22/08/2026;06:39:00;1020,6;;;13,3;78;234;5,4;0,0
22/08/2026;06:44:00;1020,7;;;13,3;78;241;4,9;0,0
22/08/2026;06:49:00;1020,8;;;13,3;78;228;5,4;0,0
22/08/2026;06:54:00;1020,8;;;13,3;78;233;4,5;0,0
22/08/2026;06:59:00;1020,8;;;13,3;78;238;5,2;0,0
22/08/2026;07:04:00;1020,9;;;13,3;78;242;5,2;0,0
22/08/2026;07:09:00;1021,0;;;13,3;78;243;5,0;0,0
22/08/2026;07:14:00;1021,1;;;13,3;78;243;5,2;0,0
22/08/2026;07:19:00;1021,3;;;13,3;78;247;5,2;0,0
22/08/2026;07:24:00;1021,4;;;13,3;78;248;4,4;0,0
22/08/2026;07:29:00;1021,4;;;13,3;78;249;4,6;0,0
22/08/2026;07:34:00;1021,5;;;13,4;78;246;4,9;0,0
22/08/2026;07:39:00;1021,6;;;13,4;78;243;4,6;0,0
22/08/2026;07:44:00;1021,6;;;13,4;78;250;5,0;0,0
22/08/2026;07:49:00;1021,7;;;13,5;78;241;4,4;0,0
22/08/2026;07:54:00;1021,7;;;13,5;78;236;4,8;0,0
22/08/2026;07:59:00;1021,7;;;13,5;78;243;4,3;0,0
22/08/2026;08:04:00;1021,8;;;13,6;79;237;4,2;0,0
22/08/2026;08:09:00;1021,9;;;13,6;79;241;4,9;0,0
22/08/2026;08:14:00;1022,0;;;13,7;80;242;4,6;0,0
22/08/2026;08:19:00;1022,1;;;13,9;80;241;4,7;0,0
22/08/2026;08:24:00;1022,1;;;14,1;81;241;5,5;0,0
22/08/2026;08:29:00;1022,2;;;14,2;80;236;5,6;0,0
22/08/2026;08:34:00;1022,2;;;14,4;80;234;5,4;0,0
22/08/2026;08:39:00;1022,1;;;14,5;80;244;5,3;0,0
22/08/2026;08:44:00;1022,3;;;14,6;80;231;5,1;0,0
22/08/2026;08:49:00;1022,3;;;14,7;79;234;5,4;0,0
22/08/2026;08:54:00;1022,4;;;14,8;79;237;6,0;0,0
22/08/2026;08:59:00;1022,5;;;14,9;79;231;5,3;0,0
22/08/2026;09:04:00;1022,5;;;15,0;79;236;5,8;0,0
22/08/2026;09:09:00;1022,5;;;15,1;79;242;5,8;0,0
22/08/2026;09:14:00;1022,6;;;15,2;79;241;6,0;0,0
22/08/2026;09:19:00;1022,7;;;15,3;79;239;5,4;0,0
22/08/2026;09:24:00;1022,7;;;15,4;78;241;5,6;0,0
22/08/2026;09:29:00;1022,7;;;15,4;78;246;4,5;0,0
22/08/2026;09:34:00;1022,8;;;15,5;78;251;5,1;0,0
22/08/2026;09:39:00;1022,9;;;15,6;78;240;4,7;0,0
22/08/2026;09:44:00;1022,9;;;15,7;78;231;4,9;0,0
22/08/2026;09:49:00;1023,0;;;15,8;78;237;4,6;0,0
22/08/2026;09:54:00;1023,0;;;15,8;78;240;4,9;0,0
22/08/2026;09:59:00;1023,0;;;15,9;78;232;5,0;0,0
22/08/2026;10:04:00;1023,0;;;16,0;78;229;5,3;0,0
22/08/2026;10:09:00;1022,9;;;16,0;77;229;5,7;0,0
22/08/2026;10:14:00;1022,9;;;16,0;77;244;5,0;0,0
22/08/2026;10:19:00;1022,9;;;16,0;78;229;5,3;0,0
22/08/2026;10:24:00;1022,9;;;16,0;78;233;4,4;0,0
22/08/2026;10:29:00;1022,9;;;16,1;78;239;4,7;0,0
22/08/2026;10:34:00;1022,9;;;16,2;78;227;5,1;0,0
22/08/2026;10:39:00;1022,9;;;16,2;77;236;4,7;0,0
22/08/2026;10:44:00;1022,8;;;16,2;77;235;4,9;0,0
22/08/2026;10:49:00;1022,8;;;16,3;78;237;5,1;0,0
22/08/2026;10:54:00;1022,8;;;16,3;78;235;5,3;0,0
22/08/2026;10:59:00;1022,7;;;16,3;78;236;5,7;0,0
22/08/2026;11:04:00;1022,6;;;16,4;78;234;5,6;0,0
22/08/2026;11:09:00;1022,4;;;16,4;78;238;5,8;0,0
22/08/2026;11:14:00;1022,4;;;16,5;77;236;5,7;0,0
22/08/2026;11:19:00;1022,3;;;16,5;77;236;5,8;0,0
22/08/2026;11:24:00;1022,2;;;16,5;77;236;5,2;0,0
22/08/2026;11:29:00;1022,2;;;16,5;77;236;5,9;0,0
22/08/2026;11:34:00;1022,1;;;16,6;78;236;5,9;0,0
22/08/2026;11:39:00;1022,1;;;16,6;77;237;6,1;0,0
22/08/2026;11:44:00;1022,0;;;16,6;77;238;6,2;0,0
22/08/2026;11:49:00;1021,9;;;16,7;77;237;6,3;0,0
22/08/2026;11:54:00;1021,9;;;16,7;77;233;6,4;0,0
22/08/2026;11:59:00;1021,7;;;16,7;77;234;6,5;0,0
22/08/2026;12:04:00;1021,7;;;16,8;77;236;6,5;0,0
22/08/2026;12:09:00;1021,5;;;16,8;77;238;6,4;0,0
22/08/2026;12:14:00;1021,4;;;16,8;77;244;6,4;0,0
22/08/2026;12:19:00;1021,4;;;16,8;77;242;7,3;0,0
22/08/2026;12:24:00;1021,3;;;16,8;77;242;6,7;0,0
22/08/2026;12:29:00;1021,3;;;16,9;77;238;6,6;0,0
22/08/2026;12:34:00;1021,2;;;16,9;77;239;8,0;0,0
22/08/2026;12:39:00;1021,1;;;16,8;77;240;7,5;0,0
22/08/2026;12:44:00;1021,0;;;16,8;77;244;8,0;0,0
22/08/2026;12:49:00;1021,0;;;16,8;77;239;7,9;0,0
22/08/2026;12:54:00;1020,9;;;16,8;77;244;8,1;0,0
22/08/2026;12:59:00;1020,8;;;16,8;77;243;8,0;0,0
22/08/2026;13:04:00;1020,7;;;16,8;77;245;7,9;0,0
22/08/2026;13:09:00;1020,7;;;16,8;77;247;7,3;0,0
22/08/2026;13:14:00;1020,7;;;16,8;77;241;7,5;0,0
22/08/2026;13:19:00;1020,7;;;16,8;76;245;8,0;0,0
22/08/2026;13:24:00;1020,6;;;16,8;76;246;7,4;0,0
22/08/2026;13:29:00;1020,7;;;16,8;76;240;7,7;0,0
22/08/2026;13:34:00;1020,6;;;16,8;76;247;8,2;0,0
22/08/2026;13:39:00;1020,6;;;16,8;76;243;7,5;0,0
22/08/2026;13:44:00;1020,5;;;16,8;76;249;7,6;0,0
22/08/2026;13:49:00;1020,5;;;16,8;76;248;7,1;0,0
22/08/2026;13:54:00;1020,6;;;16,8;76;247;7,1;0,0
22/08/2026;13:59:00;1020,6;;;16,9;76;248;7,1;0,0
22/08/2026;14:04:00;1020,6;;;16,9;76;247;6,7;0,0
22/08/2026;14:09:00;1020,7;;;16,9;76;242;7,2;0,0
22/08/2026;14:14:00;1020,7;;;16,9;76;248;6,1;0,0
22/08/2026;14:19:00;1020,8;;;16,9;76;248;5,6;0,0
22/08/2026;14:24:00;1020,8;;;17,0;76;249;6,3;0,0
22/08/2026;14:29:00;1020,8;;;17,0;76;245;5,4;0,0
22/08/2026;14:34:00;1020,8;;;17,1;76;255;4,4;0,0
22/08/2026;14:39:00;1020,7;;;17,1;76;248;6,2;0,0
22/08/2026;14:44:00;1020,7;;;17,2;76;248;6,2;0,0
22/08/2026;14:49:00;1020,7;;;17,3;76;246;5,5;0,0
22/08/2026;14:54:00;1020,7;;;17,3;76;252;6,0;0,0
22/08/2026;14:59:00;1020,7;;;17,3;76;249;6,2;0,0
22/08/2026;15:04:00;1020,6;;;17,3;75;249;5,3;0,0
22/08/2026;15:09:00;1020,6;;;17,4;75;247;5,5;0,0
22/08/2026;15:14:00;1020,6;;;17,4;75;248;5,0;0,0
22/08/2026;15:19:00;1020,6;;;17,4;75;250;3,9;0,0
22/08/2026;15:24:00;1020,6;;;17,4;76;262;3,0;0,0
22/08/2026;15:29:00;1020,5;;;17,4;75;252;4,1;0,0
22/08/2026;15:34:00;1020,4;;;17,5;75;252;4,9;0,0
22/08/2026;15:39:00;1020,3;;;17,6;75;246;5,0;0,0
22/08/2026;15:44:00;1020,3;;;17,6;75;250;5,1;0,0
22/08/2026;15:49:00;1020,3;;;17,6;75;249;5,7;0,0
22/08/2026;15:54:00;1020,3;;;17,6;74;248;3,7;0,0
22/08/2026;15:59:00;1020,4;;;17,6;75;254;4,0;0,0
22/08/2026;16:04:00;1020,4;;;17,6;75;252;3,4;0,0
22/08/2026;16:09:00;1020,4;;;17,6;75;254;2,8;0,0
22/08/2026;16:14:00;1020,4;;;17,7;74;256;3,3;0,0
22/08/2026;16:19:00;1020,4;;;17,7;74;251;3,7;0,0
22/08/2026;16:24:00;1020,4;;;17,7;74;243;3,1;0,0
22/08/2026;16:29:00;1020,4;;;17,7;74;249;4,4;0,0
22/08/2026;16:34:00;1020,5;;;17,7;73;249;3,8;0,0
22/08/2026;16:39:00;1020,6;;;17,6;73;250;3,8;0,0
22/08/2026;16:44:00;1020,7;;;17,6;73;251;2,9;0,0
22/08/2026;16:49:00;1020,7;;;17,5;73;246;3,6;0,0
22/08/2026;16:54:00;1020,6;;;17,2;73;251;3,2;0,0
22/08/2026;16:59:00;1020,6;;;17,0;73;247;4,3;0,0
22/08/2026;17:04:00;1020,7;;;16,8;74;247;4,1;0,0
22/08/2026;17:09:00;1020,7;;;16,7;75;243;4,1;0,0
22/08/2026;17:14:00;1020,9;;;16,7;75;255;3,2;0,0
22/08/2026;17:19:00;1020,9;;;16,7;75;253;4,3;0,0
22/08/2026;17:24:00;1021,0;;;16,7;74;249;3,8;0,0
22/08/2026;17:29:00;1021,0;;;16,6;74;240;4,8;0,0
22/08/2026;17:34:00;1021,0;;;16,5;74;236;4,4;0,0
22/08/2026;17:39:00;1021,0;;;16,2;74;246;4,1;0,0
22/08/2026;17:44:00;1021,1;;;16,0;75;241;3,3;0,0
22/08/2026;17:49:00;1021,1;;;15,8;75;236;3,6;0,0
22/08/2026;17:54:00;1021,1;;;15,7;75;241;4,2;0,0
22/08/2026;17:59:00;1021,0;;;15,5;75;238;4,6;0,0
22/08/2026;18:04:00;1021,0;;;15,4;76;235;3,9;0,0
22/08/2026;18:09:00;1021,0;;;15,2;76;234;2,9;0,0
22/08/2026;18:14:00;1021,2;;;15,1;76;234;2,2;0,0
22/08/2026;18:19:00;1021,3;;;15,0;76;242;3,0;0,0
22/08/2026;18:24:00;1021,3;;;14,9;76;249;3,2;0,0
22/08/2026;18:29:00;1021,3;;;14,8;76;250;3,3;0,0
22/08/2026;18:34:00;1021,2;;;14,7;76;245;3,4;0,0
22/08/2026;18:39:00;1021,2;;;14,6;76;246;3,2;0,0
22/08/2026;18:44:00;1021,4;;;14,5;76;256;2,3;0,0
22/08/2026;18:49:00;1021,4;;;14,4;76;242;2,4;0,0
22/08/2026;18:54:00;1021,4;;;14,4;76;230;2,5;0,0
22/08/2026;18:59:00;1021,4;;;14,3;76;233;2,0;0,0
22/08/2026;19:04:00;1021,3;;;14,2;76;250;2,2;0,0
22/08/2026;19:09:00;1021,3;;;14,1;76;255;2,1;0,0
22/08/2026;19:14:00;1021,4;;;14,0;76;251;1,7;0,0
22/08/2026;19:19:00;1021,5;;;13,9;76;218;1,5;0,0
22/08/2026;19:24:00;1021,6;;;13,8;76;223;1,6;0,0
22/08/2026;19:29:00;1021,6;;;13,8;76;229;1,6;0,0
22/08/2026;19:34:00;1021,6;;;13,7;76;229;1,2;0,0
22/08/2026;19:39:00;1021,7;;;13,6;76;240;1,5;0,0
22/08/2026;19:44:00;1021,7;;;13,6;76;203;1,3;0,0
22/08/2026;19:49:00;1021,7;;;13,5;76;200;1,1;0,0
22/08/2026;19:54:00;1021,8;;;13,4;76;178;1,3;0,0
22/08/2026;19:59:00;1021,9;;;13,3;76;185;1,4;0,0
22/08/2026;20:04:00;1021,8;;;13,2;76;196;1,2;0,0
22/08/2026;20:09:00;1021,9;;;13,1;76;199;1,3;0,0
22/08/2026;20:14:00;1021,9;;;13,0;76;189;1,4;0,0
22/08/2026;20:19:00;1021,9;;;13,0;77;201;1,5;0,0
22/08/2026;20:24:00;1022,0;;;12,9;77;192;1,3;0,0
22/08/2026;20:29:00;1022,0;;;12,9;77;172;1,1;0,0
22/08/2026;20:34:00;1022,0;;;12,8;76;183;1,1;0,0
22/08/2026;20:39:00;1022,0;;;12,7;77;253;1,4;0,0
22/08/2026;20:44:00;1022,0;;;12,7;76;191;1,2;0,0
22/08/2026;20:49:00;1022,1;;;12,6;76;175;1,2;0,0
22/08/2026;20:54:00;1022,1;;;12,5;76;159;1,3;0,0
22/08/2026;20:59:00;1022,2;;;12,5;76;167;1,3;0,0
22/08/2026;21:04:00;1022,2;;;12,4;76;157;1,5;0,0
22/08/2026;21:09:00;1022,2;;;12,3;76;163;1,5;0,0
22/08/2026;21:14:00;1022,2;;;12,3;77;154;1,2;0,0
22/08/2026;21:19:00;1022,2;;;12,2;76;160;1,3;0,0
22/08/2026;21:24:00;1022,2;;;12,2;76;154;1,3;0,0
22/08/2026;21:29:00;1022,2;;;12,1;76;154;1,3;0,0
22/08/2026;21:34:00;1022,2;;;12,0;76;149;1,0;0,0
22/08/2026;21:39:00;1022,3;;;12,0;76;160;1,1;0,0
22/08/2026;21:44:00;1022,3;;;11,9;76;147;1,0;0,0
22/08/2026;21:49:00;1022,3;;;11,8;76;153;1,3;0,0
22/08/2026;21:54:00;1022,3;;;11,8;76;156;1,1;0,0
22/08/2026;21:59:00;1022,3;;;11,7;76;160;1,2;0,0
22/08/2026;22:04:00;1022,4;;;11,7;76;154;1,2;0,0
22/08/2026;22:09:00;1022,3;;;11,6;76;152;1,1;0,0
22/08/2026;22:14:00;1022,2;;;11,5;76;149;1,2;0,0
22/08/2026;22:19:00;1022,3;;;11,4;76;153;1,2;0,0
22/08/2026;22:24:00;1022,3;;;11,4;77;166;1,1;0,0
22/08/2026;22:29:00;1022,3;;;11,3;77;158;0,9;0,0
22/08/2026;22:34:00;1022,3;;;11,3;77;155;1,1;0,0
22/08/2026;22:39:00;1022,2;;;11,2;77;155;1,1;0,0
22/08/2026;22:44:00;1022,2;;;11,2;76;157;1,1;0,0
22/08/2026;22:49:00;1022,1;;;11,2;76;162;1,1;0,0
22/08/2026;22:54:00;1022,2;;;11,1;77;152;1,2;0,0
22/08/2026;22:59:00;1022,1;;;11,1;76;161;1,0;0,0
22/08/2026;23:04:00;1022,2;;;11,0;76;164;1,0;0,0
22/08/2026;23:09:00;1022,2;;;11,0;77;177;1,0;0,0
22/08/2026;23:14:00;1022,2;;;10,9;77;159;1,4;0,0
22/08/2026;23:19:00;1022,2;;;10,9;77;201;1,1;0,0
22/08/2026;23:24:00;1022,2;;;10,9;77;225;0,6;0,0
22/08/2026;23:29:00;1022,1;;;10,9;76;148;1,0;0,0
22/08/2026;23:34:00;1022,0;;;10,9;76;178;1,3;0,0
22/08/2026;23:39:00;1022,0;;;10,8;76;165;1,1;0,0
22/08/2026;23:44:00;1021,9;;;10,8;76;139;1,3;0,0
22/08/2026;23:49:00;1021,9;;;10,8;76;157;1,3;0,0
22/08/2026;23:54:00;1021,7;;;10,7;76;149;1,3;0,0
22/08/2026;23:59:00;1021,7;;;10,7;76;164;1,1;0,0
